Regional Weather Roundup
Issued by NWS Sterling, VA

Home | Current Version | Previous Version | Graphics & Text | Print | Product List | Glossary On
Versions: 1 2 3 4 5 6 7 8 9 10 11 12 13 14 15 16 17 18 19 20 21 22 23 24 25 26 27 28 29 30 31 32 33 34 35 36 37 38 39 40 41 42 43 44 45 46 47 48 49 50
000
ASUS41 KLWX 231310
RWRLWX

REGIONAL WEATHER ROUNDUP
NATIONAL WEATHER SERVICE BALTIMORE MD/WASHINGTON DC
900 AM EDT THU MAR 23 2017

Note: "FAIR" indicates few or no clouds below 12,000 feet
with no significant weather and/or obstructions to visibility.
 TC=TEMPERATURE CELSIUS

 * =Non NWS site. Station does not report precipitation (e.g. rain,
    snow, etc.), thunder, or fog.

DCZ001-MDZ009-015-VAZ040>042-051-053>054-231400-
WASHINGTON METRO

CITY           SKY/WX    TMP DP  RH WIND       PRES   REMARKS
WASHINGTON NAT MOSUNNY   32   5  32 NE8       30.66R WCI  25
DULLES         SUNNY     31   5  33 E7        30.64R
ANDREWS AFB    SUNNY     30   5  34 VRB6      30.63R
FT BELVOIR     SUNNY     32   5  32 VRB5      30.66R
QUANTICO       MOSUNNY   33  11  39 E8        30.68R WCI  26
COLLEGE PARK*  SUNNY     30   5  34 NE3       30.66R
LEESBURG*      SUNNY     32  10  40 CALM      30.65S
MANASSAS*      SUNNY     30  17  58 SE3       30.65R
GAITHERSBURG*  SUNNY     28   5  37 CALM      30.67R

$$

MDZ006>007-011-014-231400-
BALTIMORE METRO

CITY           SKY/WX    TMP DP  RH WIND       PRES   REMARKS
BWI AIRPORT    MOSUNNY   31   5  33 N8        30.64R WCI  23
MD SCIENCE CTR   N/A     31   3  30 MISG      30.67R
MARTIN STATE   MOSUNNY   30   7  37 N3        30.67
ANNAPOLIS      MOSUNNY   33  10  38 N12       30.65R WCI  24
FORT MEADE*    SUNNY     30  10  43 NE3       30.67S

$$

MDZ012-015-019>023-231400-
MARYLAND EASTERN SHORE

CITY           SKY/WX    TMP DP  RH WIND       PRES   REMARKS
OCEAN CITY     SUNNY     32  11  41 N9G21     30.64R WCI  24
SALISBURY      SUNNY     29  10  45 N13G18    30.65R WCI  19
BAY BRIDGE AP* SUNNY     32   9  37 N6        30.66R
CAMBRIDGE*     SUNNY     30   5  34 NE8       30.66R WCI  23
EASTON*        SUNNY     30   5  34 NE7       30.69R

$$

MDZ017>025-231400-
SOUTHERN MARYLAND

CITY           SKY/WX    TMP DP  RH WIND       PRES   REMARKS
PATUXENT RIVER MOSUNNY   32   9  38 NE13      30.65R WCI  22
ST INIGOES     SUNNY     33   8  35 VRB7      30.65
LEONARDTOWN*   SUNNY     32  12  43 E5        30.66R

$$

MDZ003>005-231400-
NORTH CENTRAL MARYLAND

CITY           SKY/WX    TMP DP  RH WIND       PRES   REMARKS
FREDERICK*     SUNNY     28  16  59 CALM      30.67R
HAGERSTOWN APT SUNNY     29   6  38 N8        30.60S WCI  21
WESTMINSTER*   SUNNY     28   9  43 N7        30.59S

$$

MDZ501>502-231400-
WESTERN MARYLAND

CITY           SKY/WX    TMP DP  RH WIND       PRES   REMARKS
OAKLAND*       SUNNY     21   9  58 SE9       30.42S WCI  11
CUMBERLAND*    SUNNY     28  10  47 CALM      30.64S

$$

VAZ025>031-231400-
SHENANDOAH VALLEY

CITY           SKY/WX    TMP DP  RH WIND       PRES   REMARKS
WINCHESTER*    SUNNY     28   9  43 E3        30.61R
FRONT ROYAL*   SUNNY     30  10  43 CALM      30.61R
LURAY*         SUNNY     30  16  55 NE5       30.60R
NEW MARKET*    SUNNY     29  12  50 N5        30.58S
STAUNTON*      SUNNY     26  15  62 CALM      30.60R
WAYNESBORO*    SUNNY     30   8  39 SE6       30.56R

$$

WVZ021-048>050-054>055-231400-
EASTERN WEST VIRGINIA PANHANDLE

CITY           SKY/WX    TMP DP  RH WIND       PRES   REMARKS
MARTINSBURG    SUNNY     28   7  41 VRB5      30.62R
PETERSBURG*    SUNNY     26  19  73 CALM      30.60S

$$

VAZ036>039-050-231400-
CENTRAL FOOTHILLS

CITY           SKY/WX    TMP DP  RH WIND       PRES   REMARKS
CHARLOTTESVILL SUNNY     34   8  33 NE9       30.61R WCI  27
CULPEPER*      SUNNY     33  12  42 NE3       30.65R
ORANGE*        SUNNY     32   9  37 NE7       30.64R
GORDONSVILLE*  SUNNY     32  11  41 NE5       30.62S
WARRENTON*     SUNNY     32   7  34 NE5       30.64R

$$

VAZ055>057-231400-
NORTH AND CENTRAL PIEDMONT

CITY           SKY/WX    TMP DP  RH WIND       PRES   REMARKS
FREDERICKSBRG* SUNNY     33  12  41 NE6       30.65R
STAFFORD*      SUNNY     32   9  38 NE8       30.69R WCI  25

$$

NCZ024-NYZ072-PAZ021-071-VAZ022-071-231400-
OTHER REGIONAL OBSERVATIONS

CITY           SKY/WX    TMP DP  RH WIND       PRES   REMARKS
NEW YORK CITY  SUNNY     25   5  42 NW8       30.61R WCI  16
PHILADELPHIA   MOSUNNY   28   6  39 N15G21    30.64R WCI  16
PITTSBURGH     MOSUNNY   24  12  60 E8        30.54R WCI  15
ROANOKE        SUNNY     34  13  41 S5        30.60R
RICHMOND       SUNNY     34  13  41 E10       30.63R WCI  26
RALEIGH        SUNNY     39  12  33 NE14      30.58R

$$

ANZ530>537-231400-
MARINE OBSERVATIONS

STATION/POSITION TIME  TEMP    WIND        PRES
                       AIR SEA DIR/SP/G
                 (UTC) (F)     (DEG/KT/KT) (MB)
THOMAS PT LIGHT  1200   31 43   20/ 15/ 17   N/A
BALT KEY BRIDGE  1248   29     360/  8/ 12 1038.2R
COVE POINT       1248   30      40/ 13/ 16 1038.6R
LEWISETTA        1248   32 47   60/  9/ 15 1037.9R
SOLOMONS ISLAND  1242   31 44   40/ 10/ 12   N/A
PINEY POINT      1248           70/  6/  9   N/A

$$




USA.gov is the U.S. government's official web portal to all federal, state and local government web resources and services.